When you browse on this site, cookies collect data to enhance your experience and personalize the content and advertising you see.
Visit our Privacy Policy to learn more. By continuing to use the site, you agree to this use of cookies and data.
  • In Lithuania
  • List of Countries
  • For 7 days
  • Water Temperature
  • Weather Map
  • Weather Widgets
  • user-avatar
    Login

    Hourly Weather Solden

    Today, 17 October, Thursday

    Time Temperature Precipitation Wind Pressure Humidity
    00:00 +2°C° 0 mm 1 mps 582 mmHg 94%
    01:00 +2°C° 0 mm 1 mps 583 mmHg 94%
    02:00 +2°C° 0 mm 1 mps 582 mmHg 94%
    03:00 +2°C° 0 mm 1 mps 582 mmHg 94%
    04:00 +1°C° 0 mm 0 mps 582 mmHg 94%
    05:00 +1°C° 0 mm 0 mps 582 mmHg 93%
    06:00 0°C° 0 mm 0 mps 582 mmHg 92%
    07:00 0°C° 0 mm 0 mps 582 mmHg 91%
    08:00 +1°C° 0 mm 0 mps 582 mmHg 86%
    09:00 +4°C° 0 mm 1 mps 583 mmHg 82%
    10:00 +6°C° 0 mm 1 mps 584 mmHg 77%
    11:00 +6°C° 0 mm 1 mps 584 mmHg 73%
    12:00 +7°C° 0 mm 1 mps 584 mmHg 70%
    13:00 +7°C° 0 mm 1 mps 584 mmHg 67%
    14:00 +7°C° 0 mm 1 mps 584 mmHg 69%
    15:00 +7°C° 0 mm 1 mps 584 mmHg 71%
    16:00 +6°C° 0 mm 1 mps 583 mmHg 74%
    17:00 +5°C° 0 mm 1 mps 583 mmHg 79%
    18:00 +3°C° 0 mm 1 mps 582 mmHg 84%
    19:00 +1°C° 0 mm 0 mps 582 mmHg 90%
    20:00 +1°C° 0 mm 0 mps 582 mmHg 90%
    21:00 0°C° 0 mm 0 mps 582 mmHg 91%
    22:00 0°C° 0 mm 0 mps 582 mmHg 92%
    23:00 0°C° 0 mm 0 mps 582 mmHg 92%

    Tomorrow, 18 October, Friday

    Time Temperature Precipitation Wind Pressure Humidity
    00:00 0°C° 0 mm 0 mps 582 mmHg 93%
    01:00 0°C° 0 mm 0 mps 581 mmHg 93%
    02:00 -1°C° 0 mm 0 mps 581 mmHg 93%
    03:00 -1°C° 0 mm 0 mps 581 mmHg 92%
    04:00 -1°C° 0 mm 0 mps 581 mmHg 92%
    05:00 -1°C° 0 mm 0 mps 581 mmHg 91%
    06:00 -1°C° 0 mm 0 mps 581 mmHg 90%
    07:00 0°C° 0 mm 0 mps 581 mmHg 89%
    08:00 +1°C° 0 mm 0 mps 582 mmHg 84%
    09:00 +4°C° 0 mm 1 mps 582 mmHg 79%
    10:00 +5°C° 0 mm 1 mps 583 mmHg 74%
    11:00 +6°C° 0 mm 1 mps 583 mmHg 74%
    12:00 +6°C° 0 mm 1 mps 583 mmHg 74%
    13:00 +6°C° 0 mm 1 mps 583 mmHg 74%
    14:00 +6°C° 0 mm 1 mps 583 mmHg 77%
    15:00 +6°C° 0 mm 1 mps 583 mmHg 80%
    16:00 +5°C° 0 mm 1 mps 582 mmHg 84%
    17:00 +4°C° 0 mm 1 mps 582 mmHg 87%
    18:00 +4°C° 0 mm 1 mps 582 mmHg 91%
    19:00 +3°C° 0 mm 1 mps 581 mmHg 94%
    20:00 +3°C° 0 mm 1 mps 581 mmHg 95%
    21:00 +3°C° 0 mm 1 mps 582 mmHg 95%
    22:00 +3°C° 0 mm 1 mps 582 mmHg 95%
    23:00 +3°C° 0.1 mm 1 mps 581 mmHg 96%

    Day after tomorrow, 19 October, Saturday

    Time Temperature Precipitation Wind Pressure Humidity
    00:00 +3°C° 0.1 mm 1 mps 581 mmHg 96%
    01:00 +3°C° 0.1 mm 1 mps 581 mmHg 97%
    02:00 +3°C° 0.3 mm 1 mps 581 mmHg 97%
    03:00 +3°C° 0.3 mm 1 mps 581 mmHg 97%
    04:00 +3°C° 0.3 mm 1 mps 581 mmHg 98%
    05:00 +3°C° 0.3 mm 1 mps 580 mmHg 98%
    06:00 +2°C° 0.3 mm 2 mps 580 mmHg 98%
    07:00 +2°C° 0.3 mm 2 mps 580 mmHg 98%
    08:00 +2°C° 0.3 mm 2 mps 580 mmHg 98%
    09:00 +3°C° 0.3 mm 2 mps 580 mmHg 97%
    10:00 +3°C° 0.3 mm 2 mps 580 mmHg 97%
    11:00 +3°C° 0.2 mm 2 mps 580 mmHg 97%
    12:00 +3°C° 0.2 mm 2 mps 580 mmHg 96%
    13:00 +3°C° 0.2 mm 2 mps 580 mmHg 96%
    14:00 +3°C° 0.2 mm 2 mps 580 mmHg 97%
    15:00 +3°C° 0.2 mm 2 mps 580 mmHg 97%
    16:00 +3°C° 0.2 mm 2 mps 580 mmHg 97%
    17:00 +3°C° 0.1 mm 2 mps 580 mmHg 97%
    18:00 +3°C° 0.1 mm 2 mps 580 mmHg 98%
    19:00 +3°C° 0.1 mm 2 mps 581 mmHg 98%
    20:00 +3°C° 0.1 mm 2 mps 581 mmHg 98%
    21:00 +3°C° 0.1 mm 2 mps 581 mmHg 98%
    22:00 +3°C° 0.1 mm 2 mps 581 mmHg 98%
    23:00 +3°C° 0.2 mm 2 mps 581 mmHg 98%

    20 October, Sunday

    Time Temperature Precipitation Wind Pressure Humidity
    00:00 +3°C° 0.2 mm 2 mps 581 mmHg 98%
    01:00 +3°C° 0.2 mm 2 mps 581 mmHg 98%
    02:00 +3°C° 0.3 mm 2 mps 581 mmHg 98%
    03:00 +3°C° 0.3 mm 2 mps 581 mmHg 98%
    04:00 +3°C° 0.3 mm 2 mps 581 mmHg 98%
    05:00 +3°C° 0.5 mm 2 mps 581 mmHg 98%
    06:00 +3°C° 0.5 mm 2 mps 581 mmHg 98%
    07:00 +3°C° 0.5 mm 2 mps 581 mmHg 98%
    08:00 +4°C° 0.2 mm 2 mps 581 mmHg 97%
    09:00 +4°C° 0.2 mm 2 mps 582 mmHg 96%
    10:00 +4°C° 0.2 mm 3 mps 582 mmHg 94%
    11:00 +4°C° 0.3 mm 3 mps 582 mmHg 91%
    12:00 +5°C° 0.3 mm 3 mps 582 mmHg 88%
    13:00 +5°C° 0.3 mm 3 mps 582 mmHg 85%
    14:00 +5°C° 0.3 mm 3 mps 582 mmHg 89%
    15:00 +4°C° 0.3 mm 3 mps 582 mmHg 92%
    16:00 +5°C° 0.3 mm 2 mps 581 mmHg 95%
    17:00 +5°C° 0.2 mm 2 mps 581 mmHg 96%
    18:00 +4°C° 0.2 mm 2 mps 581 mmHg 97%
    19:00 +4°C° 0.2 mm 2 mps 582 mmHg 98%
    20:00 +4°C° 0.2 mm 2 mps 582 mmHg 98%
    21:00 +4°C° 0.2 mm 2 mps 582 mmHg 98%
    22:00 +4°C° 0.2 mm 2 mps 582 mmHg 98%
    23:00 +4°C° 2.3 mm 2 mps 581 mmHg 98%

    21 October, Monday

    Time Temperature Precipitation Wind Pressure Humidity
    00:00 +4°C° 2.3 mm 2 mps 581 mmHg 98%
    01:00 +4°C° 2.3 mm 2 mps 581 mmHg 98%
    02:00 +4°C° 0.7 mm 2 mps 581 mmHg 98%
    03:00 +4°C° 0.7 mm 2 mps 581 mmHg 98%
    04:00 +4°C° 0.7 mm 2 mps 581 mmHg 98%
    05:00 +4°C° 0.8 mm 2 mps 581 mmHg 98%
    06:00 +4°C° 0.8 mm 2 mps 582 mmHg 98%
    07:00 +4°C° 0.8 mm 2 mps 582 mmHg 98%
    08:00 +4°C° 1.5 mm 2 mps 582 mmHg 98%
    09:00 +5°C° 1.5 mm 2 mps 582 mmHg 98%
    10:00 +5°C° 1.5 mm 2 mps 583 mmHg 98%
    11:00 +5°C° 1.6 mm 2 mps 583 mmHg 98%
    12:00 +5°C° 1.6 mm 2 mps 583 mmHg 98%
    13:00 +5°C° 1.6 mm 2 mps 583 mmHg 98%
    14:00 +5°C° 1.3 mm 2 mps 583 mmHg 98%
    15:00 +5°C° 1.3 mm 2 mps 583 mmHg 97%
    16:00 +5°C° 1.3 mm 2 mps 583 mmHg 97%
    17:00 +4°C° 0.5 mm 2 mps 583 mmHg 97%
    18:00 +5°C° 0.5 mm 1 mps 583 mmHg 97%
    19:00 +5°C° 0.5 mm 1 mps 583 mmHg 97%
    20:00 +5°C° 1.5 mm 1 mps 584 mmHg 97%
    21:00 +5°C° 1.5 mm 1 mps 584 mmHg 98%
    22:00 +5°C° 1.5 mm 1 mps 584 mmHg 98%
    23:00 +5°C° 1.8 mm 1 mps 584 mmHg 98%

    22 October, Tuesday

    Time Temperature Precipitation Wind Pressure Humidity
    00:00 +5°C° 1.8 mm 1 mps 584 mmHg 98%
    01:00 +5°C° 1.8 mm 1 mps 584 mmHg 98%
    02:00 +5°C° 1 mm 1 mps 584 mmHg 98%
    03:00 +5°C° 1 mm 1 mps 584 mmHg 98%
    04:00 +5°C° 1 mm 1 mps 584 mmHg 98%
    05:00 +5°C° 0.2 mm 1 mps 585 mmHg 98%
    06:00 +5°C° 0.2 mm 1 mps 585 mmHg 98%
    07:00 +5°C° 0.2 mm 1 mps 585 mmHg 98%
    08:00 +6°C° 0 mm 1 mps 585 mmHg 97%
    09:00 +6°C° 0 mm 1 mps 586 mmHg 95%
    10:00 +7°C° 0 mm 1 mps 586 mmHg 94%
    11:00 +7°C° 0.1 mm 1 mps 587 mmHg 92%
    12:00 +8°C° 0.1 mm 1 mps 587 mmHg 90%
    13:00 +8°C° 0.1 mm 1 mps 587 mmHg 88%
    14:00 +8°C° 0.1 mm 1 mps 587 mmHg 89%
    15:00 +8°C° 0.1 mm 1 mps 586 mmHg 91%
    16:00 +8°C° 0.1 mm 1 mps 586 mmHg 92%
    17:00 +7°C° 0 mm 1 mps 586 mmHg 93%
    18:00 +6°C° 0 mm 1 mps 586 mmHg 95%
    19:00 +5°C° 0 mm 1 mps 585 mmHg 96%
    20:00 +5°C° 0 mm 1 mps 585 mmHg 96%
    21:00 +5°C° 0 mm 1 mps 585 mmHg 96%
    22:00 +5°C° 0 mm 1 mps 585 mmHg 96%
    23:00 +5°C° 0 mm 1 mps 585 mmHg 96%
    Show more